www.pogodaiklimat.ru
ПОГОДА в Тавау
Время
(UTC), дата
21 28.07
00 29.07
03 29.07
06 29.07
09 29.07
12 29.07
15 29.07
18 29.07
21 29.07
00 30.07
03 30.07
06 30.07
09 30.07
12 30.07
15 30.07
18 30.07
21 30.07
00 31.07
03 31.07
06 31.07
09 31.07
12 31.07
15 31.07
18 31.07
21 31.07
00 1.08
03 1.08
06 1.08
09 1.08
12 1.08
15 1.08
18 1.08
21 1.08
00 2.08
03 2.08
06 2.08
09 2.08
12 2.08
15 2.08
18 2.08
21 2.08
00 3.08
03 3.08
06 3.08
09 3.08
12 3.08
15 3.08
18 3.08
21 3.08
00 4.08
03 4.08
06 4.08
09 4.08
12 4.08
15 4.08
18 4.08
Ветер
(напр.,м/с)
Видим. Явления Облачность Т
(С)
Тd
(С)
f
(%)
Тe
(С)
Тes
(С)
Комфортность P
(гПа)
Po
(гПа)
Тmin
(С)
Tmax
(С)
R
(мм)
R24
(мм)
S
(см)
штиль 0 15 км 9/4 500 м
[Cu Sc Ac lent Ci sp]
+24.0 +23.2 95 +32 +32 очень
душно
1006.9 1005.0
С 1 18 км 9/3 500 м
[Cu Sc Ac trans Ci sp]
+26.3 +24.9 92 +38 +40 очень
душно
1008.5 1006.6 +23.7
Ю 4 16 км 8/4 500 м
[Cu Sc Ac lent Ci fib]
+31.3 +25.3 71 +46 +51 опасность
перегрева
1007.9 1006.0
Ю 3 12 км осадки на расстоянии 9/4 480 м
[Cb cap Ac lent Ci sp]
+29.7 +26.2 82 +45 +50 опасность
перегрева
1006.4 1004.5 0.0
ЮВ 3 <100 м 9/4 500 м
[Cu Sc Ac lent Ci sp]
+29.5 +25.7 80 +44 +44 опасность
перегрева
1006.1 1004.2
С 2 15 км 9/3 480 м
[Cu Sc Ac lent Ci sp]
+26.3 +25.0 93 +38 +38 очень
душно
1008.2 1006.3 +32.2
штиль 0 15 км 9/3 480 м
[Cu Sc Ac lent Ci sp]
+25.2 +24.4 95 +35 +35 очень
душно
1009.2 1007.3
СЗ 1 15 км 8/1 500 м
[Cu Sc Ac lent Ci fib]
+24.0 +23.2 95 +32 +32 очень
душно
1007.5 1005.6
штиль 0 15 км 8/1 500 м
[Cu Sc Ac lent Ci fib]
+23.4 +22.7 96 +33 +33 очень
душно
1007.3 1005.4
штиль 0 12 км осадки на расстоянии 9/4 50 м
[Cu Sc Ac lent Ci sp]
+25.3 +24.3 94 +35 +37 очень
душно
1009.3 1007.4 +23.3 0.0 0.0
Ю 3 12 км мгла 9/4 500 м
[Cu Sc Ac lent Ci sp]
+29.9 +25.4 77 +44 +50 опасность
перегрева
1009.1 1007.2
Ю 3 13 км мгла 9/5 480 м
[Cu Sc Ac lent Cs]
+29.9 +25.4 77 +44 +48 опасность
перегрева
1007.1 1005.2
Ю 2 15 км мгла 9/3 500 м
[Cu Sc Ac lent Ci sp]
+28.9 +25.7 83 +43 +44 опасность
перегрева
1006.9 1005.0
Ю 2 12 км мгла 9/3 500 м
[Cu Sc Ac lent Ci fib]
+27.9 +25.1 85 +40 +40 очень
душно
1008.3 1006.4 +30.5
штиль 0 12 км мгла 9/3 500 м
[Cu Sc Ac lent Ci fib]
+26.3 +25.0 93 +38 +38 очень
душно
1009.4 1007.5
штиль 0 12 км {дождь} 9/4 480 м
[Cu Sc Ac As]
+25.2 +24.3 95 +35 +35 очень
душно
1007.6 1005.7 2
штиль 0 12 км {дождь} 9/5 500 м
[Cu Sc Ac lent Ci sp]
+24.3 +23.9 98 +33 +33 очень
душно
1007.2 1005.3
З 1 16 км {дождь} 9/5 1000 м
[Cb cap Ac lent Cs]
+26.4 +25.8 97 +39 +41 очень
душно
1008.9 1007.0 +24.2 10 10.0
Ю 4 15 км мгла 9/3 500 м
[Cu Sc Ac lent Ci sp]
+29.7 +26.3 82 +45 +51 опасность
перегрева
1008.9 1007.0
Ю 3 10 км слаб. ливневой дождь 9/5 500 м
[Cu Sc Ac As]
+29.0 +25.6 82 +43 +46 опасность
перегрева
1007.6 1005.7
Ю 1 10 км слаб. дождь 9/3 240 м
[Frnb As op]
+27.8 +25.4 87 +41 +41 опасность
перегрева
1007.1 1005.2
З 1 13 км 9/4 500 м
[Cu Sc Ac lent Cs]
+26.6 +25.6 94 +39 +39 очень
душно
1008.4 1006.5 +30.2 0.0
ЮВ 3 3000 м дождь 9/6 480 м
[Cu Sc Ac lent Cs]
+25.4 +24.6 95 +36 +36 очень
душно
1010.0 1008.1
З 1 15 км в посл. час дождь 9/3 500 м
[Cu Sc Ac As]
+23.8 +23.4 98 +32 +32 очень
душно
1008.7 1006.8 27
ЮЗ 3 9000 м слаб. дождь 9/4 500 м
[Cu Sc Ac As]
+21.2 +20.2 94 +26 +26 душно 1009.3 1007.4
СЗ 1 15 км {дождь} 9/4 50 м
[Cu Sc Ac As]
+22.8 +21.7 94 +31 +32 очень
душно
1010.0 1008.1 +21.1 33 32.8
З 2 15 км 9/3 500 м
[Cu Sc Ac As]
+26.4 +22.0 77 +34 +40 очень
душно
1010.6 1008.7
З 2 18 км 9/1 480 м
[Cu Sc Ac As]
+28.5 +23.2 73 +38 +44 очень
душно
1007.3 1005.4
ЮЗ 1 18 км 9/3 480 м
[Cu Sc Ac As]
+28.0 +24.1 79 +39 +40 очень
душно
1007.5 1005.6
штиль 0 15 км 9/4 480 м
[Cu Sc Ac As]
+25.4 +24.4 94 +35 +35 очень
душно
1009.6 1007.7 +28.6
С 2 15 км 9/4 500 м
[Cu Sc Ac As]
+24.2 +23.5 96 +33 +33 очень
душно
1010.6 1008.7
СЗ 1 15 км 9/3 500 м
[Cu Sc Ac As]
+23.5 +22.7 95 +31 +31 очень
душно
1009.2 1007.3
СЗ 1 15 км 9/1 500 м
[Cu Sc Ac lent Ci fib]
+22.7 +21.7 94 +30 +30 очень
душно
1008.9 1007.0
С 1 17 км мгла 9/1 1000 м
[Cu Sc Ac trans Ci sp]
+26.4 +24.0 87 +37 +39 очень
душно
1009.9 1008.0 +22.5
ЮВ 3 17 км мгла 9/3 500 м
[Cu Sc Ac lent Ci sp]
+30.1 +25.5 76 +44 +51 опасность
перегрева
1010.2 1008.3
ЮВ 3 17 км мгла 9/3 500 м
[Cu Sc Ac lent Ci sp]
+29.7 +25.4 78 +44 +50 опасность
перегрева
1008.6 1006.7
ЮВ 3 17 км мгла 9/3 500 м
[Cu Sc Ac lent Ci sp]
+29.1 +25.4 80 +42 +43 опасность
перегрева
1007.2 1005.3
СЗ 1 15 км мгла 9/3 480 м
[Cu Sc Ac trans Ci sp]
+26.5 +25.1 92 +38 +38 очень
душно
1008.9 1007.0 +30.7
штиль 0 12 км мгла 9/3 480 м
[Cu Sc Ac As]
+25.7 +24.9 95 +36 +36 очень
душно
1010.1 1008.2
СЗ 2 15 км мгла 9/3 480 м
[Cu Sc Ac lent Cs]
+24.7 +23.9 95 +34 +34 очень
душно
1008.4 1006.5
штиль 0 15 км мгла 9/1 480 м
[Cu Sc Ac lent Cs]
+24.6 +23.5 94 +33 +33 очень
душно
1008.6 1006.7
СЗ 1 15 км 8/3 50 м
[Cu Sc Ac lent Ci fib]
+27.0 +24.3 85 +38 +40 очень
душно
1009.6 1007.7 +24.3
Ю 3 <100 м 8/3 500 м
[Cu Sc Ac lent Ci fib]
+31.7 +24.9 67 +45 +53 опасность
перегрева
1009.3 1007.4
Ю 4 17 км 9/4 480 м
[Cb cap Ac lent Ci sp]
+31.7 +24.4 65 +44 +48 опасность
перегрева
1006.9 1005.0
Ю 2 12 км осадки на расстоянии 9/4 480 м
[Cb cap Ac lent Ci fib]
+29.2 +25.1 79 +42 +43 опасность
перегрева
1005.8 1003.9
СЗ 1 12 км 9/3 500 м
[Cu Sc Ac lent Ci fib]
+26.9 +25.4 92 +39 +39 очень
душно
1007.4 1005.5 +32.3
СЗ 1 12 км 8/3 500 м
[Cu Sc Ac As]
+26.4 +25.2 93 +38 +38 очень
душно
1009.0 1007.1
СЗ 2 <100 м 8/3 500 м
[Cu Sc Ac As]
+25.5 +24.7 95 +36 +36 очень
душно
1007.4 1005.5
З 1 12 км 8/3 500 м
[Cu Sc Ac lent Ci fib]
+24.8 +24.1 96 +34 +34 очень
душно
1006.8 1004.9
З 1 13 км мгла 9/5 500 м
[Cu Sc Ac As]
+25.9 +24.5 92 +36 +38 очень
душно
1008.2 1006.3 +24.7
Ю 5 15 км мгла 9/5 480 м
[Cb cap Ac lent Cs]
+29.5 +25.6 80 +44 +47 опасность
перегрева
1008.6 1006.7
Ю 3 10 км осадки на расстоянии 9/4 480 м
[Cb cap Ac As]
+29.7 +25.5 78 +44 +47 опасность
перегрева
1006.1 1004.2
С 3 10 км осадки на расстоянии 9/5 450 м
[Cb cap Ac As]
+27.1 +24.4 85 +38 +38 очень
душно
1006.2 1004.3
С 2 8000 м слаб. дождь 9/8 480 м
[Cu Sc Ac As]
+23.7 +23.3 98 +32 +32 очень
душно
1008.1 1006.2 +31.0 9
СЗ 1 10 км слаб. дождь 9/8 450 м
[Cu Sc Ac As]
+23.9 +23.5 98 +32 +32 очень
душно
1010.0 1008.1
штиль 0 14 км {дождь} 9/4 480 м
[Cu Sc Ac lent Cs]
+24.1 +23.7 98 +33 +33 очень
душно
1008.5 1006.6 0.6
Местоположение метеостанции Тавау (Малайзия): широта 4.27 долгота 117.88 высота над уровнем моря 20 м.
В архиве по умолчанию представлена погода в Тавау за последнюю неделю. Архивные данные за месяц целиком и за предыдущие месяцы, начиная с января 2011 года, Вы можете получить, выбрав интересующий диапазон дат из раскрывающегося списка и нажав кнопку "Найти!".
*Определитесь, кто Вы:
Внимание! Время в таблицах - всемирное. Для получения местного времени необходимо прибавить поправку, которая равна 8 ч.
Смотрите также архив погоды в соседних городах и на ближайших метеорологических станциях:
Партнеры нашего сайта:      
Пояснения к столбцам:
  • Ветер - указаны скорость ветра в м/с - средняя за 10 мин, порывы в срок и между сроками (в фигурных скобках) и направление, откуда дует ветер: С - северный,
  • СВ - северо-восточный, В - восточный, ЮВ - юго-восточный, Ю - южный, ЮЗ - юго-западный, З - западный, СЗ - северо-западный.
  • Видимость - горизонтальная дальность видимости в метрах или километрах. При видимости от 1 до 10 км при отсутствии осадков обычно наблюдается дымка, при ухудшении видимости до 1 км и менее - туман. В сухую погоду видимость может ухудшаться дымом, пылью или мглою.
  • Явления - указаны атмосферные явления, наблюдавшиеся в срок или в последний час перед сроком; фигурными скобками обозначены явления, наблюдавшиеся между сроками (за 1-3 часа до срока); квадратными скобками обозначены град или гололедные отложения с указанием их диаметра в мм.
  • Облачность - указаны через наклонную черту общая и нижняя облачность в баллах и высота нижней границы облаков в метрах; квадратными скобками обозначены формы облаков: Ci - перистые, Cs - перисто-слоистые, Cc - перисто-кучевые, Ac - высококучевые, As - высокослоистые, Sc - слоисто-кучевые, Ns - слоисто-дождевые, Cu - кучевые, Cb - кучево-дождевые. Подробнее классификацию облаков см. в Атласе облаков (PDF).
  • T - Температура воздуха - температура, измеренная на высоте 2 м над землей.
  • Td - Температура точки росы - температура, при понижении до которой содержащийся в воздухе водяной пар достигнет насыщения.
  • f - Относительная влажность воздуха - влажноcть воздуха, измеренная на высоте 2 м над землей.
  • Te - Эффективная температура - температура, которую ощущает одетый по сезону человек в тени. Характеристика душности погоды. При расчете учитывается влияние влажности воздуха и скорости ветра на теплоощущения человека.
  • Tes - Эффективная температура на солнце - температура, которую ощущает человек, с поправкой на солнечный нагрев. Характеристика знойности погоды. Зависит от высоты солнца над горизонтом, облачности и скорости ветра. Ночью, в пасмурную погоду, а также при ветре 12 м/с и более поправка равна нулю.
  • P - Атмосферное давление - приведенное к уровню моря атмосферное давление.
  • Po - Атмосферное давление - измеренное на уровне метеостанции атмосферное давление.
  • Tmin - Минимальная температура - минимум температуры воздуха на высоте 2 м над землей.
  • Tmax - Максимальная температура - максимум температуры воздуха на высоте 2 м над землей.
  • R - Количество осадков - Количество выпавших осадков за период времени, мм. При наведении курсора мыши на число - период времени, за который выпало указанное количество осадков.
  • R24 - Количество осадков - Количество выпавших осадков за 24 часа, мм.
  • S - Снежный покров - Высота снежного покрова, см. При наведении курсора мыши на число - состояние снежного покрова и степень покрытия местности в баллах.